| time (UTC) | temp F | wind direction | speed MPH | gust MPH | rain 1hr in | rain 24hr in | rain mn in | humidity % | barometer mb |
| 20260902104214 | 77 | 250 | 0.0 | 0.0 | 0.00 | 0.00 | 0.00 | 81 | 1017.1 |
| 20260902103713 | 77 | 240 | 0.0 | 0.0 | 0.00 | 0.00 | 0.00 | 81 | 1017.1 |
| 20260902103208 | 77 | 256 | 0.0 | 1.0 | 0.00 | 0.00 | 0.00 | 81 | 1017.0 |
| 20260902102704 | 77 | 266 | 0.0 | 0.0 | 0.00 | 0.00 | 0.00 | 81 | 1016.9 |
| 20260902102201 | 77 | 255 | 0.0 | 0.0 | 0.00 | 0.00 | 0.00 | 80 | 1017.1 |
| 20260902101701 | 77 | 241 | 0.0 | 0.0 | 0.00 | 0.00 | 0.00 | 79 | 1017.1 |
| 20260902101156 | 77 | 227 | 0.0 | 0.0 | 0.00 | 0.00 | 0.00 | 79 | 1016.9 |
| 20260902100650 | 77 | 225 | 0.0 | 0.0 | 0.00 | 0.00 | 0.00 | 79 | 1016.9 |
| 20260902100145 | 77 | 232 | 0.0 | 0.0 | 0.00 | 0.00 | 0.00 | 79 | 1016.9 |
| 20260902095644 | 77 | 251 | 0.0 | 0.0 | 0.00 | 0.00 | 0.00 | 79 | 1016.8 |
| 20260902095144 | 78 | 234 | 0.0 | 0.0 | 0.00 | 0.00 | 0.00 | 78 | 1016.8 |
| 20260902094639 | 78 | 228 | 0.0 | 0.0 | 0.00 | 0.00 | 0.00 | 78 | 1016.9 |
| 20260902094135 | 78 | 156 | 0.0 | 0.0 | 0.00 | 0.00 | 0.00 | 78 | 1016.9 |
| 20260902093634 | 78 | 113 | 0.0 | 0.0 | 0.00 | 0.00 | 0.00 | 78 | 1016.7 |
| 20260902093130 | 78 | 210 | 0.0 | 1.0 | 0.00 | 0.00 | 0.00 | 77 | 1016.8 |
| 20260902092624 | 78 | 244 | 0.0 | 0.0 | 0.00 | 0.00 | 0.00 | 77 | 1016.8 |
| 20260902092119 | 78 | 245 | 0.0 | 0.0 | 0.00 | 0.00 | 0.00 | 77 | 1016.6 |
| 20260902091614 | 78 | 238 | 0.0 | 0.0 | 0.00 | 0.00 | 0.00 | 76 | 1016.7 |
| 20260902091111 | 79 | 226 | 0.0 | 0.0 | 0.00 | 0.00 | 0.00 | 76 | 1016.8 |
| 20260902090607 | 79 | 224 | 0.0 | 0.0 | 0.00 | 0.00 | 0.00 | 76 | 1016.8 |
| 20260902090106 | 79 | 232 | 0.0 | 0.0 | 0.00 | 0.00 | 0.00 | 75 | 1017.0 |
| 20260902085606 | 79 | 233 | 0.0 | 0.0 | 0.00 | 0.00 | 0.00 | 75 | 1016.9 |
| 20260902085100 | 79 | 184 | 0.0 | 0.0 | 0.00 | 0.00 | 0.00 | 75 | 1017.1 |
| 20260902084557 | 79 | 234 | 1.0 | 1.0 | 0.00 | 0.00 | 0.00 | 75 | 1016.9 |
| 20260902084052 | 79 | 244 | 0.0 | 1.0 | 0.00 | 0.00 | 0.00 | 75 | 1016.9 |
| 20260902083548 | 79 | 241 | 0.0 | 0.0 | 0.00 | 0.00 | 0.00 | 75 | 1017.1 |
| 20260902083047 | 79 | 237 | 0.0 | 0.0 | 0.00 | 0.00 | 0.00 | 74 | 1017.0 |
| 20260902082543 | 80 | 228 | 0.0 | 0.0 | 0.00 | 0.00 | 0.00 | 74 | 1017.0 |
| 20260902082039 | 80 | 228 | 0.0 | 0.0 | 0.00 | 0.00 | 0.00 | 74 | 1017.2 |
| 20260902081536 | 80 | 233 | 0.0 | 1.0 | 0.00 | 0.00 | 0.00 | 73 | 1017.1 |
| 20260902081035 | 80 | 228 | 0.0 | 0.0 | 0.00 | 0.00 | 0.00 | 72 | 1017.0 |
| 20260902080531 | 80 | 228 | 0.0 | 0.0 | 0.00 | 0.00 | 0.00 | 72 | 1017.3 |
| 20260902080027 | 80 | 229 | 0.0 | 0.0 | 0.00 | 0.00 | 0.00 | 72 | 1016.9 |
| 20260902075527 | 81 | 226 | 1.0 | 1.0 | 0.00 | 0.00 | 0.00 | 71 | 1016.9 |
| 20260902075023 | 81 | 255 | 1.0 | 2.0 | 0.00 | 0.00 | 0.00 | 71 | 1017.0 |
| 20260902074518 | 81 | 217 | 1.0 | 1.0 | 0.00 | 0.00 | 0.00 | 71 | 1017.0 |
| 20260902074013 | 81 | 238 | 1.0 | 1.0 | 0.00 | 0.00 | 0.00 | 70 | 1017.2 |
| 20260902073509 | 81 | 216 | 1.0 | 2.0 | 0.00 | 0.00 | 0.00 | 70 | 1017.4 |
| 20260902073006 | 81 | 221 | 0.0 | 1.0 | 0.00 | 0.00 | 0.00 | 70 | 1017.4 |
| 20260902072501 | 82 | 217 | 0.0 | 2.0 | 0.00 | 0.00 | 0.00 | 70 | 1017.3 |
| 20260902071957 | 82 | 199 | 1.0 | 1.0 | 0.00 | 0.00 | 0.00 | 70 | 1017.5 |
| 20260902071456 | 82 | 232 | 3.0 | 3.0 | 0.00 | 0.00 | 0.00 | 70 | 1017.4 |
| 20260902070953 | 81 | 227 | 2.0 | 2.0 | 0.00 | 0.00 | 0.00 | 70 | 1017.4 |
| 20260902070448 | 81 | 190 | 1.0 | 2.0 | 0.00 | 0.00 | 0.00 | 70 | 1017.3 |
| 20260902065947 | 81 | 237 | 1.0 | 3.0 | 0.00 | 0.00 | 0.00 | 70 | 1017.3 |
| 20260902065442 | 81 | 221 | 1.0 | 2.0 | 0.00 | 0.00 | 0.00 | 70 | 1017.5 |
| 20260902064937 | 81 | 222 | 3.0 | 4.0 | 0.00 | 0.00 | 0.00 | 70 | 1017.5 |
| 20260902064432 | 81 | 218 | 1.0 | 3.0 | 0.00 | 0.00 | 0.00 | 70 | 1017.5 |
| 20260902063928 | 81 | 227 | 2.0 | 2.0 | 0.00 | 0.00 | 0.00 | 70 | 1017.5 |
| 20260902063427 | 81 | 172 | 1.0 | 2.0 | 0.00 | 0.00 | 0.00 | 70 | 1017.6 |
| 20260902062923 | 81 | 220 | 2.0 | 3.0 | 0.00 | 0.00 | 0.00 | 69 | 1017.5 |
| 20260902062423 | 81 | 191 | 2.0 | 3.0 | 0.00 | 0.00 | 0.00 | 69 | 1017.7 |
| 20260902061922 | 82 | 214 | 3.0 | 3.0 | 0.00 | 0.00 | 0.00 | 69 | 1017.6 |
| 20260902061418 | 82 | 219 | 2.0 | 3.0 | 0.00 | 0.00 | 0.00 | 69 | 1017.6 |
| 20260902060914 | 82 | 222 | 2.0 | 2.0 | 0.00 | 0.00 | 0.00 | 69 | 1017.5 |
| 20260902060409 | 82 | 239 | 1.0 | 2.0 | 0.00 | 0.00 | 0.00 | 69 | 1017.4 |
| 20260902055905 | 82 | 218 | 2.0 | 3.0 | 0.00 | 0.00 | 0.00 | 69 | 1017.3 |
| 20260902055401 | 82 | 233 | 2.0 | 2.0 | 0.00 | 0.00 | 0.00 | 68 | 1017.4 |
| 20260902054856 | 82 | 197 | 2.0 | 3.0 | 0.00 | 0.00 | 0.00 | 68 | 1017.3 |
| 20260902054352 | 82 | 206 | 1.0 | 2.0 | 0.00 | 0.00 | 0.00 | 68 | 1017.1 |
| 20260902053847 | 82 | 216 | 2.0 | 2.0 | 0.00 | 0.00 | 0.00 | 68 | 1017.1 |
| 20260902053342 | 82 | 209 | 2.0 | 3.0 | 0.00 | 0.00 | 0.00 | 68 | 1017.2 |
| 20260902052841 | 82 | 222 | 1.0 | 2.0 | 0.00 | 0.00 | 0.00 | 68 | 1017.3 |
| 20260902052337 | 83 | 214 | 2.0 | 2.0 | 0.00 | 0.00 | 0.00 | 67 | 1017.2 |
| 20260902051832 | 83 | 204 | 1.0 | 1.0 | 0.00 | 0.00 | 0.00 | 67 | 1017.2 |
| 20260902051332 | 83 | 187 | 1.0 | 2.0 | 0.00 | 0.00 | 0.00 | 67 | 1017.1 |
| 20260902050832 | 83 | 211 | 1.0 | 2.0 | 0.00 | 0.00 | 0.00 | 66 | 1017.2 |
| 20260902050331 | 83 | 165 | 1.0 | 1.0 | 0.00 | 0.00 | 0.00 | 66 | 1017.1 |
| 20260902045826 | 84 | 216 | 0.0 | 1.0 | 0.00 | 0.00 | 0.00 | 65 | 1017.2 |
| 20260902045322 | 84 | 215 | 1.0 | 2.0 | 0.00 | 0.00 | 0.00 | 65 | 1017.1 |
| 20260902044818 | 84 | 167 | 2.0 | 3.0 | 0.00 | 0.00 | 0.00 | 65 | 1017.2 |
| 20260902044314 | 84 | 221 | 1.0 | 1.0 | 0.00 | 0.00 | 0.00 | 65 | 1017.3 |
| 20260902043813 | 84 | 227 | 2.0 | 2.0 | 0.00 | 0.00 | 0.00 | 65 | 1017.2 |
| 20260902043309 | 84 | 193 | 2.0 | 3.0 | 0.00 | 0.00 | 0.00 | 64 | 1017.1 |
| 20260902042808 | 84 | 220 | 0.0 | 2.0 | 0.00 | 0.00 | 0.00 | 64 | 1017.5 |
| 20260902042308 | 84 | 204 | 2.0 | 2.0 | 0.00 | 0.00 | 0.00 | 64 | 1017.3 |
| 20260902041759 | 84 | 225 | 1.0 | 3.0 | 0.00 | 0.00 | 0.00 | 64 | 1017.2 |
| 20260902041258 | 85 | 190 | 2.0 | 3.0 | 0.00 | 0.00 | 0.00 | 63 | 1017.1 |
| 20260902040757 | 85 | 178 | 1.0 | 2.0 | 0.00 | 0.00 | 0.00 | 63 | 1017.2 |
| 20260902040253 | 85 | 123 | 3.0 | 6.0 | 0.00 | 0.00 | 0.00 | 63 | 1017.2 |
| 20260902035751 | 85 | 262 | 1.0 | 3.0 | 0.00 | 0.00 | 0.00 | 63 | 1017.2 |
| 20260902035248 | 85 | 98 | 2.0 | 2.0 | 0.00 | 0.00 | 0.00 | 63 | 1017.0 |
| 20260902034746 | 85 | 188 | 0.0 | 6.0 | 0.00 | 0.00 | 0.00 | 62 | 1017.2 |
| 20260902034241 | 86 | 219 | 1.0 | 1.0 | 0.00 | 0.00 | 0.00 | 62 | 1017.1 |
| 20260902033739 | 86 | 205 | 1.0 | 3.0 | 0.00 | 0.00 | 0.00 | 61 | 1016.9 |
| 20260902033235 | 86 | 174 | 3.0 | 3.0 | 0.00 | 0.00 | 0.00 | 61 | 1016.9 |
| 20260902032733 | 86 | 100 | 2.0 | 3.0 | 0.00 | 0.00 | 0.00 | 60 | 1016.8 |
| 20260902032229 | 86 | 115 | 5.0 | 7.0 | 0.00 | 0.00 | 0.00 | 59 | 1016.7 |
| 20260902031728 | 87 | 262 | 2.0 | 7.0 | 0.00 | 0.00 | 0.00 | 59 | 1016.7 |
| 20260902031224 | 87 | 172 | 3.0 | 8.0 | 0.00 | 0.00 | 0.00 | 58 | 1016.5 |
| 20260902030720 | 87 | 205 | 3.0 | 4.0 | 0.00 | 0.00 | 0.00 | 58 | 1016.6 |
| 20260902030220 | 87 | 170 | 2.0 | 4.0 | 0.00 | 0.00 | 0.00 | 57 | 1016.6 |
| 20260902025719 | 88 | 157 | 1.0 | 9.0 | 0.00 | 0.00 | 0.00 | 57 | 1016.3 |
| 20260902025214 | 88 | 81 | 1.0 | 10.0 | 0.00 | 0.00 | 0.00 | 56 | 1016.2 |
| 20260902024709 | 88 | 217 | 5.0 | 8.0 | 0.00 | 0.00 | 0.00 | 55 | 1016.3 |
| 20260902024204 | 89 | 132 | 5.0 | 8.0 | 0.00 | 0.00 | 0.00 | 55 | 1016.1 |
| 20260902023700 | 89 | 253 | 4.0 | 10.0 | 0.00 | 0.00 | 0.00 | 53 | 1016.0 |
| 20260902023155 | 89 | 195 | 2.0 | 6.0 | 0.00 | 0.00 | 0.00 | 52 | 1015.9 |
| 20260902022654 | 90 | 186 | 2.0 | 8.0 | 0.00 | 0.00 | 0.00 | 52 | 1015.8 |
| 20260902022150 | 89 | 240 | 3.0 | 6.0 | 0.00 | 0.00 | 0.00 | 51 | 1015.8 |
| 20260902021646 | 90 | 229 | 0.0 | 1.0 | 0.00 | 0.00 | 0.00 | 51 | 1015.3 |
| 20260902021140 | 90 | 230 | 1.0 | 3.0 | 0.00 | 0.00 | 0.00 | 51 | 1015.5 |
| 20260902020636 | 90 | 95 | 0.0 | 1.0 | 0.00 | 0.00 | 0.00 | 51 | 1015.3 |
| 20260902020132 | 91 | 215 | 0.0 | 1.0 | 0.00 | 0.00 | 0.00 | 50 | 1015.3 |
| 20260902015627 | 91 | 200 | 1.0 | 1.0 | 0.00 | 0.00 | 0.00 | 49 | 1015.2 |
| 20260902015123 | 91 | 223 | 0.0 | 1.0 | 0.00 | 0.00 | 0.00 | 49 | 1015.2 |
| 20260902014619 | 91 | 171 | 0.0 | 1.0 | 0.00 | 0.00 | 0.00 | 49 | 1015.0 |
| 20260902014114 | 91 | 219 | 0.0 | 1.0 | 0.00 | 0.00 | 0.00 | 49 | 1015.1 |
| 20260902013614 | 91 | 237 | 0.0 | 1.0 | 0.00 | 0.00 | 0.00 | 49 | 1014.9 |
| 20260902013109 | 92 | 225 | 0.0 | 1.0 | 0.00 | 0.00 | 0.00 | 48 | 1014.9 |
| 20260902012605 | 92 | 186 | 0.0 | 1.0 | 0.00 | 0.00 | 0.00 | 47 | 1014.9 |
| 20260902012100 | 92 | 207 | 1.0 | 2.0 | 0.00 | 0.00 | 0.00 | 47 | 1014.8 |
| 20260902011555 | 93 | 115 | 1.0 | 2.0 | 0.00 | 0.00 | 0.00 | 47 | 1014.9 |
| 20260902011055 | 93 | 231 | 0.0 | 0.0 | 0.00 | 0.00 | 0.00 | 46 | 1014.8 |
| 20260902010554 | 93 | 225 | 0.0 | 2.0 | 0.00 | 0.00 | 0.00 | 46 | 1014.7 |
| 20260902010050 | 94 | 108 | 2.0 | 4.0 | 0.00 | 0.00 | 0.00 | 45 | 1014.8 |
| 20260902005548 | 94 | 108 | 2.0 | 3.0 | 0.00 | 0.00 | 0.00 | 44 | 1014.7 |
| 20260902005044 | 94 | 50 | 1.0 | 2.0 | 0.00 | 0.00 | 0.00 | 44 | 1014.8 |
| 20260902004543 | 95 | 93 | 4.0 | 6.0 | 0.00 | 0.00 | 0.00 | 44 | 1014.9 |
| 20260902004039 | 95 | 99 | 2.0 | 3.0 | 0.00 | 0.00 | 0.00 | 43 | 1014.7 |
| 20260902003534 | 95 | 172 | 1.0 | 2.0 | 0.00 | 0.00 | 0.00 | 43 | 1014.8 |
| 20260902003030 | 95 | 192 | 2.0 | 2.0 | 0.00 | 0.00 | 0.00 | 43 | 1014.6 |
| 20260902002526 | 96 | 193 | 1.0 | 4.0 | 0.00 | 0.00 | 0.00 | 43 | 1014.7 |
| 20260902002020 | 96 | 54 | 3.0 | 4.0 | 0.00 | 0.00 | 0.00 | 42 | 1014.7 |
| 20260902001514 | 96 | 233 | 1.0 | 1.0 | 0.00 | 0.00 | 0.00 | 41 | 1014.8 |
| 20260902001010 | 96 | 89 | 3.0 | 6.0 | 0.00 | 0.00 | 0.00 | 41 | 1014.6 |
| 20260902000505 | 96 | 195 | 0.0 | 1.0 | 0.00 | 0.00 | 0.00 | 41 | 1014.9 |
| 20260902000000 | 96 | 178 | 3.0 | 4.0 | 0.00 | 0.00 | 0.00 | 41 | 1014.9 |
| 20260901235454 | 96 | 110 | 1.0 | 3.0 | 0.00 | 0.00 | 0.00 | 41 | 1014.7 |
| 20260901234949 | 96 | 110 | 3.0 | 4.0 | 0.00 | 0.00 | 0.00 | 41 | 1014.8 |
| 20260901234443 | 97 | 97 | 3.0 | 3.0 | 0.00 | 0.00 | 0.00 | 39 | 1014.7 |
| 20260901233938 | 97 | 49 | 2.0 | 4.0 | 0.00 | 0.00 | 0.00 | 39 | 1014.9 |
| 20260901233433 | 96 | 106 | 1.0 | 2.0 | 0.00 | 0.00 | 0.00 | 40 | 1014.8 |
| 20260901232930 | 96 | 98 | 4.0 | 4.0 | 0.00 | 0.00 | 0.00 | 39 | 1015.0 |
| 20260901232430 | 96 | 159 | 5.0 | 8.0 | 0.00 | 0.00 | 0.00 | 40 | 1014.9 |
| 20260901231925 | 97 | 123 | 4.0 | 7.0 | 0.00 | 0.00 | 0.00 | 40 | 1015.2 |
| 20260901231421 | 97 | 86 | 6.0 | 8.0 | 0.00 | 0.00 | 0.00 | 40 | 1015.1 |
| 20260901230918 | 97 | 137 | 5.0 | 9.0 | 0.00 | 0.00 | 0.00 | 39 | 1015.1 |
| 20260901230412 | 97 | 86 | 1.0 | 6.0 | 0.00 | 0.00 | 0.00 | 40 | 1015.2 |
| 20260901225908 | 97 | 246 | 2.0 | 2.0 | 0.00 | 0.00 | 0.00 | 41 | 1015.0 |
| 20260901225406 | 97 | 119 | 6.0 | 9.0 | 0.00 | 0.00 | 0.00 | 40 | 1015.2 |
| 20260901224901 | 98 | 12 | 4.0 | 6.0 | 0.00 | 0.00 | 0.00 | 39 | 1015.3 |
| 20260901224357 | 98 | 200 | 1.0 | 8.0 | 0.00 | 0.00 | 0.00 | 39 | 1015.1 |
| 20260901223853 | 98 | 89 | 2.0 | 3.0 | 0.00 | 0.00 | 0.00 | 39 | 1015.0 |
| 20260901223349 | 98 | 116 | 2.0 | 3.0 | 0.00 | 0.00 | 0.00 | 39 | 1015.1 |
| 20260901222844 | 99 | 104 | 4.0 | 6.0 | 0.00 | 0.00 | 0.00 | 38 | 1015.1 |
| 20260901222341 | 98 | 112 | 1.0 | 6.0 | 0.00 | 0.00 | 0.00 | 38 | 1015.1 |
| 20260901221836 | 99 | 105 | 6.0 | 8.0 | 0.00 | 0.00 | 0.00 | 37 | 1015.2 |
| 20260901221331 | 99 | 135 | 8.0 | 9.0 | 0.00 | 0.00 | 0.00 | 38 | 1015.0 |
| 20260901220831 | 98 | 118 | 2.0 | 6.0 | 0.00 | 0.00 | 0.00 | 40 | 1015.0 |
| 20260901220330 | 97 | 88 | 2.0 | 6.0 | 0.00 | 0.00 | 0.00 | 40 | 1015.1 |
| 20260901215829 | 98 | 83 | 4.0 | 8.0 | 0.00 | 0.00 | 0.00 | 40 | 1015.2 |
| 20260901215329 | 98 | 40 | 3.0 | 4.0 | 0.00 | 0.00 | 0.00 | 40 | 1015.2 |
| 20260901214827 | 98 | 45 | 2.0 | 6.0 | 0.00 | 0.00 | 0.00 | 39 | 1015.3 |
| 20260901214326 | 98 | 27 | 1.0 | 7.0 | 0.00 | 0.00 | 0.00 | 39 | 1015.3 |
| 20260901213821 | 99 | 84 | 4.0 | 6.0 | 0.00 | 0.00 | 0.00 | 37 | 1015.5 |
| 20260901213322 | 99 | 102 | 5.0 | 6.0 | 0.00 | 0.00 | 0.00 | 37 | 1015.2 |
| 20260901212822 | 99 | 130 | 3.0 | 9.0 | 0.00 | 0.00 | 0.00 | 38 | 1015.3 |
| 20260901212317 | 99 | 77 | 4.0 | 6.0 | 0.00 | 0.00 | 0.00 | 37 | 1015.4 |
| 20260901211813 | 98 | 77 | 6.0 | 8.0 | 0.00 | 0.00 | 0.00 | 39 | 1015.7 |
| 20260901211309 | 98 | 80 | 1.0 | 4.0 | 0.00 | 0.00 | 0.00 | 40 | 1015.5 |
| 20260901210804 | 97 | 231 | 0.0 | 3.0 | 0.00 | 0.00 | 0.00 | 40 | 1015.6 |
| 20260901210300 | 98 | 105 | 4.0 | 7.0 | 0.00 | 0.00 | 0.00 | 39 | 1015.6 |
| 20260901205756 | 99 | 116 | 2.0 | 4.0 | 0.00 | 0.00 | 0.00 | 39 | 1015.7 |
| 20260901205256 | 101 | 162 | 1.0 | 9.0 | 0.00 | 0.00 | 0.00 | 37 | 1015.8 |
| 20260901204751 | 100 | 68 | 6.0 | 10.0 | 0.00 | 0.00 | 0.00 | 37 | 1015.7 |
| 20260901204247 | 98 | 108 | 1.0 | 2.0 | 0.00 | 0.00 | 0.00 | 39 | 1015.8 |
| 20260901203743 | 98 | 93 | 3.0 | 7.0 | 0.00 | 0.00 | 0.00 | 40 | 1016.0 |
| 20260901203242 | 97 | 13 | 2.0 | 4.0 | 0.00 | 0.00 | 0.00 | 41 | 1016.0 |
| 20260901202741 | 96 | 203 | 2.0 | 4.0 | 0.00 | 0.00 | 0.00 | 42 | 1016.0 |
| 20260901202238 | 97 | 82 | 5.0 | 7.0 | 0.00 | 0.00 | 0.00 | 41 | 1015.9 |
| 20260901201733 | 98 | 144 | 4.0 | 13.0 | 0.00 | 0.00 | 0.00 | 40 | 1016.0 |
| 20260901201232 | 99 | 351 | 4.0 | 8.0 | 0.00 | 0.00 | 0.00 | 39 | 1016.0 |
| 20260901200732 | 99 | 354 | 2.0 | 4.0 | 0.00 | 0.00 | 0.00 | 38 | 1016.2 |
| 20260901200228 | 99 | 174 | 2.0 | 4.0 | 0.00 | 0.00 | 0.00 | 39 | 1016.2 |
| 20260901195725 | 100 | 41 | 4.0 | 8.0 | 0.00 | 0.00 | 0.00 | 38 | 1016.2 |
| 20260901195219 | 101 | 60 | 5.0 | 7.0 | 0.00 | 0.00 | 0.00 | 36 | 1016.5 |
| 20260901194715 | 100 | 209 | 2.0 | 3.0 | 0.00 | 0.00 | 0.00 | 40 | 1016.4 |
| 20260901194210 | 100 | 45 | 2.0 | 7.0 | 0.00 | 0.00 | 0.00 | 39 | 1016.5 |
| 20260901193706 | 98 | 104 | 1.0 | 4.0 | 0.00 | 0.00 | 0.00 | 39 | 1016.7 |
| 20260901193200 | 98 | 167 | 3.0 | 6.0 | 0.00 | 0.00 | 0.00 | 40 | 1016.6 |
| 20260901192700 | 98 | 349 | 2.0 | 6.0 | 0.00 | 0.00 | 0.00 | 41 | 1016.8 |
| 20260901192155 | 98 | 41 | 6.0 | 9.0 | 0.00 | 0.00 | 0.00 | 40 | 1016.8 |
| 20260901191652 | 97 | 111 | 2.0 | 3.0 | 0.00 | 0.00 | 0.00 | 42 | 1016.8 |
| 20260901191148 | 96 | 88 | 2.0 | 7.0 | 0.00 | 0.00 | 0.00 | 44 | 1016.9 |
| 20260901190643 | 96 | 320 | 0.0 | 3.0 | 0.00 | 0.00 | 0.00 | 43 | 1016.9 |
| 20260901190142 | 98 | 109 | 1.0 | 3.0 | 0.00 | 0.00 | 0.00 | 42 | 1017.1 |
| 20260901185641 | 98 | 332 | 3.0 | 8.0 | 0.00 | 0.00 | 0.00 | 42 | 1017.1 |
| 20260901185139 | 97 | 260 | 0.0 | 1.0 | 0.00 | 0.00 | 0.00 | 42 | 1017.1 |
| 20260901184636 | 97 | 231 | 2.0 | 4.0 | 0.00 | 0.00 | 0.00 | 43 | 1017.3 |
| 20260901184131 | 96 | 254 | 1.0 | 2.0 | 0.00 | 0.00 | 0.00 | 44 | 1017.5 |
| 20260901183626 | 97 | 22 | 5.0 | 7.0 | 0.00 | 0.00 | 0.00 | 43 | 1017.5 |
| 20260901183121 | 97 | 33 | 2.0 | 4.0 | 0.00 | 0.00 | 0.00 | 43 | 1017.5 |
| 20260901182617 | 97 | 238 | 2.0 | 4.0 | 0.00 | 0.00 | 0.00 | 43 | 1017.7 |
| 20260901182116 | 96 | 175 | 1.0 | 11.0 | 0.00 | 0.00 | 0.00 | 44 | 1017.8 |
| 20260901181616 | 96 | 218 | 3.0 | 7.0 | 0.00 | 0.00 | 0.00 | 44 | 1017.8 |
| 20260901181116 | 95 | 107 | 2.0 | 2.0 | 0.00 | 0.00 | 0.00 | 46 | 1017.9 |
| 20260901180615 | 96 | 245 | 1.0 | 2.0 | 0.00 | 0.00 | 0.00 | 46 | 1018.1 |
| 20260901180110 | 97 | 346 | 3.0 | 6.0 | 0.00 | 0.00 | 0.00 | 44 | 1018.2 |
| 20260901175608 | 96 | 91 | 3.0 | 7.0 | 0.00 | 0.00 | 0.00 | 45 | 1018.4 |
| 20260901175103 | 95 | 95 | 7.0 | 9.0 | 0.00 | 0.00 | 0.00 | 45 | 1018.6 |
| 20260901174559 | 95 | 222 | 3.0 | 7.0 | 0.00 | 0.00 | 0.00 | 45 | 1018.6 |
| 20260901174055 | 96 | 194 | 1.0 | 4.0 | 0.00 | 0.00 | 0.00 | 44 | 1018.6 |
| 20260901173550 | 96 | 236 | 2.0 | 8.0 | 0.00 | 0.00 | 0.00 | 45 | 1018.8 |
| 20260901173046 | 95 | 20 | 3.0 | 4.0 | 0.00 | 0.00 | 0.00 | 46 | 1018.8 |
| 20260901172541 | 96 | 30 | 2.0 | 6.0 | 0.00 | 0.00 | 0.00 | 45 | 1018.9 |
| 20260901172039 | 96 | 212 | 2.0 | 8.0 | 0.00 | 0.00 | 0.00 | 44 | 1019.0 |
| 20260901171538 | 96 | 312 | 3.0 | 4.0 | 0.00 | 0.00 | 0.00 | 45 | 1018.9 |
| 20260901171037 | 97 | 69 | 5.0 | 8.0 | 0.00 | 0.00 | 0.00 | 42 | 1018.9 |
| 20260901170537 | 96 | 95 | 3.0 | 4.0 | 0.00 | 0.00 | 0.00 | 43 | 1019.0 |
| 20260901170032 | 95 | 229 | 2.0 | 3.0 | 0.00 | 0.00 | 0.00 | 45 | 1019.1 |
| 20260901165527 | 96 | 236 | 3.0 | 6.0 | 0.00 | 0.00 | 0.00 | 45 | 1019.1 |
| 20260901165022 | 94 | 165 | 0.0 | 2.0 | 0.00 | 0.00 | 0.00 | 47 | 1019.0 |
| 20260901164517 | 95 | 179 | 2.0 | 4.0 | 0.00 | 0.00 | 0.00 | 46 | 1019.2 |
| 20260901164018 | 95 | 218 | 4.0 | 8.0 | 0.00 | 0.00 | 0.00 | 46 | 1019.1 |
| 20260901163513 | 95 | 86 | 7.0 | 10.0 | 0.00 | 0.00 | 0.00 | 45 | 1019.2 |
| 20260901163012 | 93 | 299 | 0.0 | 1.0 | 0.00 | 0.00 | 0.00 | 48 | 1019.4 |
| 20260901162508 | 92 | 55 | 0.0 | 2.0 | 0.00 | 0.00 | 0.00 | 50 | 1019.2 |
| 20260901162007 | 93 | 217 | 2.0 | 3.0 | 0.00 | 0.00 | 0.00 | 49 | 1019.3 |
| 20260901161501 | 94 | 212 | 4.0 | 8.0 | 0.00 | 0.00 | 0.00 | 49 | 1019.4 |
| 20260901161000 | 93 | 211 | 2.0 | 6.0 | 0.00 | 0.00 | 0.00 | 49 | 1019.3 |
| 20260901160456 | 93 | 257 | 0.0 | 7.0 | 0.00 | 0.00 | 0.00 | 48 | 1019.5 |
| 20260901155955 | 93 | 140 | 0.0 | 2.0 | 0.00 | 0.00 | 0.00 | 50 | 1019.4 |
| 20260901155450 | 94 | 210 | 6.0 | 8.0 | 0.00 | 0.00 | 0.00 | 48 | 1019.4 |
| 20260901154947 | 93 | 257 | 0.0 | 4.0 | 0.00 | 0.00 | 0.00 | 49 | 1019.3 |
| 20260901154446 | 94 | 216 | 1.0 | 4.0 | 0.00 | 0.00 | 0.00 | 48 | 1019.2 |
| 20260901153941 | 93 | 46 | 1.0 | 2.0 | 0.00 | 0.00 | 0.00 | 50 | 1019.3 |
| 20260901153436 | 92 | 236 | 1.0 | 2.0 | 0.00 | 0.00 | 0.00 | 52 | 1019.3 |
| 20260901152935 | 92 | 237 | 1.0 | 8.0 | 0.00 | 0.00 | 0.00 | 53 | 1019.4 |
| 20260901152434 | 93 | 225 | 2.0 | 3.0 | 0.00 | 0.00 | 0.00 | 52 | 1019.5 |
| 20260901151934 | 92 | 246 | 1.0 | 1.0 | 0.00 | 0.00 | 0.00 | 53 | 1019.2 |
| 20260901151429 | 91 | 298 | 1.0 | 2.0 | 0.00 | 0.00 | 0.00 | 54 | 1019.3 |
| 20260901150929 | 90 | 231 | 1.0 | 3.0 | 0.00 | 0.00 | 0.00 | 54 | 1019.5 |
| 20260901150427 | 92 | 245 | 3.0 | 4.0 | 0.00 | 0.00 | 0.00 | 53 | 1019.5 |
| 20260901145925 | 92 | 168 | 0.0 | 2.0 | 0.00 | 0.00 | 0.00 | 53 | 1019.3 |
| 20260901145425 | 90 | 71 | 1.0 | 1.0 | 0.00 | 0.00 | 0.00 | 55 | 1019.4 |
| 20260901144919 | 89 | 231 | 1.0 | 1.0 | 0.00 | 0.00 | 0.00 | 57 | 1019.5 |
| 20260901144415 | 89 | 198 | 3.0 | 4.0 | 0.00 | 0.00 | 0.00 | 57 | 1019.5 |
| 20260901143910 | 88 | 22 | 1.0 | 3.0 | 0.00 | 0.00 | 0.00 | 60 | 1019.6 |
| 20260901143407 | 88 | 191 | 3.0 | 4.0 | 0.00 | 0.00 | 0.00 | 61 | 1019.7 |
| 20260901142903 | 88 | 339 | 0.0 | 1.0 | 0.00 | 0.00 | 0.00 | 61 | 1019.8 |
| 20260901142402 | 88 | 200 | 3.0 | 3.0 | 0.00 | 0.00 | 0.00 | 61 | 1019.6 |
| 20260901141857 | 89 | 220 | 1.0 | 3.0 | 0.00 | 0.00 | 0.00 | 62 | 1019.8 |
| 20260901141352 | 88 | 208 | 0.0 | 1.0 | 0.00 | 0.00 | 0.00 | 65 | 1019.6 |
| 20260901140851 | 86 | 221 | 0.0 | 2.0 | 0.00 | 0.00 | 0.00 | 66 | 1019.7 |
| 20260901140349 | 86 | 190 | 1.0 | 3.0 | 0.00 | 0.00 | 0.00 | 67 | 1019.6 |
| 20260901135844 | 86 | 187 | 0.0 | 0.0 | 0.00 | 0.00 | 0.00 | 68 | 1019.6 |
| 20260901135339 | 84 | 196 | 1.0 | 2.0 | 0.00 | 0.00 | 0.00 | 70 | 1019.6 |
| 20260901134830 | 84 | 213 | 0.0 | 2.0 | 0.00 | 0.00 | 0.00 | 71 | 1019.4 |
| 20260901134325 | 85 | 172 | 2.0 | 2.0 | 0.00 | 0.00 | 0.00 | 70 | 1019.5 |
| 20260901133824 | 84 | 183 | 1.0 | 2.0 | 0.00 | 0.00 | 0.00 | 72 | 1019.3 |
| 20260901133318 | 83 | 177 | 1.0 | 2.0 | 0.00 | 0.00 | 0.00 | 74 | 1019.3 |
| 20260901132817 | 82 | 203 | 1.0 | 2.0 | 0.00 | 0.00 | 0.00 | 74 | 1019.4 |
| 20260901132312 | 82 | 225 | 1.0 | 1.0 | 0.00 | 0.00 | 0.00 | 75 | 1019.3 |
| 20260901131812 | 82 | 196 | 1.0 | 2.0 | 0.00 | 0.00 | 0.00 | 76 | 1019.3 |
| 20260901131311 | 82 | 170 | 1.0 | 2.0 | 0.00 | 0.00 | 0.00 | 75 | 1019.4 |
| 20260901130807 | 81 | 172 | 1.0 | 2.0 | 0.00 | 0.00 | 0.00 | 76 | 1019.4 |
| 20260901130306 | 81 | 204 | 1.0 | 2.0 | 0.00 | 0.00 | 0.00 | 77 | 1019.4 |
| 20260901125805 | 80 | 221 | 0.0 | 3.0 | 0.00 | 0.00 | 0.00 | 78 | 1019.4 |
| 20260901125308 | 80 | 155 | 0.0 | 1.0 | 0.00 | 0.00 | 0.00 | 79 | 1019.3 |
| 20260901124759 | 78 | 226 | 0.0 | 0.0 | 0.00 | 0.00 | 0.00 | 83 | 1019.2 |
| 20260901124254 | 78 | 208 | 0.0 | 1.0 | 0.00 | 0.00 | 0.00 | 83 | 1019.1 |
| 20260901123754 | 77 | 234 | 0.0 | 0.0 | 0.00 | 0.00 | 0.00 | 85 | 1019.2 |
| 20260901123249 | 76 | 234 | 0.0 | 0.0 | 0.00 | 0.00 | 0.00 | 86 | 1019.1 |
| 20260901122748 | 76 | 237 | 0.0 | 0.0 | 0.00 | 0.00 | 0.00 | 87 | 1019.0 |
| 20260901122243 | 76 | 237 | 0.0 | 0.0 | 0.00 | 0.00 | 0.00 | 86 | 1018.9 |
| 20260901121742 | 75 | 237 | 0.0 | 0.0 | 0.00 | 0.00 | 0.00 | 87 | 1018.8 |
| 20260901121237 | 75 | 237 | 0.0 | 0.0 | 0.00 | 0.00 | 0.00 | 87 | 1018.7 |
| 20260901120737 | 75 | 238 | 0.0 | 0.0 | 0.00 | 0.00 | 0.00 | 87 | 1018.8 |
| 20260901120232 | 75 | 238 | 0.0 | 0.0 | 0.00 | 0.00 | 0.00 | 87 | 1018.7 |
| 20260901115727 | 75 | 238 | 0.0 | 0.0 | 0.00 | 0.00 | 0.00 | 86 | 1018.7 |
| 20260901115223 | 75 | 238 | 0.0 | 0.0 | 0.00 | 0.00 | 0.00 | 86 | 1018.7 |
| 20260901114721 | 76 | 238 | 0.0 | 0.0 | 0.00 | 0.00 | 0.00 | 85 | 1018.5 |
| 20260901114220 | 76 | 238 | 0.0 | 0.0 | 0.00 | 0.00 | 0.00 | 85 | 1018.5 |
| 20260901113719 | 76 | 234 | 0.0 | 0.0 | 0.00 | 0.00 | 0.00 | 85 | 1018.7 |
| 20260901113214 | 76 | 234 | 0.0 | 0.0 | 0.00 | 0.00 | 0.00 | 85 | 1018.7 |
| 20260901112713 | 76 | 234 | 0.0 | 0.0 | 0.00 | 0.00 | 0.00 | 85 | 1018.5 |
| 20260901112208 | 76 | 230 | 0.0 | 0.0 | 0.00 | 0.00 | 0.00 | 85 | 1018.6 |
| 20260901111708 | 76 | 230 | 0.0 | 0.0 | 0.00 | 0.00 | 0.00 | 84 | 1018.5 |
| 20260901111207 | 76 | 230 | 0.0 | 0.0 | 0.00 | 0.00 | 0.00 | 84 | 1018.6 |
| 20260901110702 | 76 | 230 | 0.0 | 0.0 | 0.00 | 0.00 | 0.00 | 84 | 1018.4 |
| 20260901110157 | 76 | 229 | 0.0 | 0.0 | 0.00 | 0.00 | 0.00 | 83 | 1018.5 |
| 20260901105654 | 76 | 228 | 0.0 | 0.0 | 0.00 | 0.00 | 0.00 | 83 | 1018.7 |
| 20260901105153 | 77 | 226 | 0.0 | 0.0 | 0.00 | 0.00 | 0.00 | 83 | 1018.6 |
| 20260901104650 | 77 | 226 | 0.0 | 0.0 | 0.00 | 0.00 | 0.00 | 83 | 1018.6 |